CAPE
0 0 0 0 0 0 0 0 0 0 0 0 0 0 0 0 0 0 0 0 0 0 0 0 0 0 0 0 0 0 250 0 0 0 14 23 20 7 9 3 0 0 144 609 799 892 915
0 0 0 0 0 0 0 0 0 0 0 0 0 0 0 0 0 0 0 0 0 0 0 0 0 0 0 0 0 0 0 0 0 0 19 27 15 1 0 9 48 134 626 942 931 1105 1104
0 0 0 0 0 0 0 0 0 0 0 0 0 0 0 0 0 0 0 0 0 0 0 0 0 0 0 0 0 0 13 0 0 0 33 0 2 2 5 22 224 556 956 1099 1196 1293 1333
0 0 0 0 0 0 0 0 0 0 0 0 0 0 0 0 0 0 0 0 0 0 0 0 0 0 0 0 0 37 35 8 0 0 0 0 0 0 5 20 53 195 375 465 1092 1270 1394
0 0 0 0 0 0 0 0 0 0 0 0 0 0 0 0 0 0 0 0 0 0 0 0 0 0 0 0 0 45 54 49 36 17 0 0 0 0 0 20 23 5 155 53 681 1191 1371
0 0 0 0 0 0 0 0 0 0 0 0 0 0 0 0 0 0 0 0 0 0 0 0 0 0 0 0 0 72 68 76 84 97 0 1 24 27 25 27 110 34 42 9 34 785 931
0 0 0 0 0 0 0 0 0 0 0 0 0 0 0 0 0 0 0 0 0 0 0 0 0 0 0 0 0 18 99 155 96 57 53 21 75 114 8 0 0 0 0 0 164 669 715
8 8 0 0 0 0 0 0 0 0 0 0 0 0 0 0 0 0 0 0 0 0 0 0 0 0 0 0 0 0 3 133 107 116 110 92 76 40 1 0 0 0 2 64 598 739 768
4 5 0 0 0 0 0 0 0 0 0 0 0 0 0 0 0 0 0 0 0 0 0 0 0 0 0 0 0 0 0 20 66 140 107 54 68 3 4 0 11 23 0 12 269 875 711
0 0 0 0 0 0 0 0 0 0 0 0 0 0 0 0 0 0 0 0 0 0 0 0 0 0 0 0 0 0 0 0 0 80 93 95 21 0 21 8 2 43 0 0 355 690 335
0 0 0 0 0 0 0 0 0 0 0 0 0 0 0 0 0 0 0 0 0 0 0 0 0 0 0 0 0 0 0 0 0 0 0 3 13 0 0 20 1 1 0 10 374 470 285
0 0 0 0 0 0 0 0 0 0 0 0 0 0 0 0 0 0 0 0 0 0 0 0 0 0 0 0 0 0 0 0 0 0 0 0 0 0 0 0 4 3 25 218 343 116 96
0 0 0 0 0 0 0 0 0 0 0 0 0 0 0 0 0 0 0 0 0 0 0 0 0 0 0 0 0 0 0 0 0 0 0 0 0 0 0 3 2 0 46 164 147 150 58
0 0 0 0 0 0 0 0 0 0 0 0 0 0 0 0 0 0 0 0 0 0 0 0 0 0 0 0 0 0 0 0 0 0 0 0 0 0 0 0 12 2 20 61 41 35 57
0 0 0 0 0 0 0 0 0 0 0 0 0 0 0 0 0 0 0 0 0 0 0 0 0 0 0 0 0 0 0 0 0 0 0 0 0 0 0 0 0 0 0 0 1 0 0
0 0 0 0 0 0 0 0 0 0 0 0 0 0 0 0 0 0 0 0 0 0 0 0 0 0 0 0 0 0 0 0 0 0 0 0 4 0 0 3 0 0 0 3 3 11 80
0 0 0 0 0 0 0 0 0 0 0 0 0 0 0 0 0 0 0 0 0 0 0 0 0 0 0 0 0 0 0 0 0 0 0 0 1 0 0 1 15 0 0 0 32 7 106
0 0 0 0 0 0 0 0 0 0 0 0 0 0 0 0 0 0 0 0 0 0 0 0 0 0 0 0 0 0 0 0 0 0 0 0 0 0 1 17 92 25 13 6 27 256 201
0 0 0 0 0 0 0 0 0 0 0 0 0 0 0 0 0 0 0 0 0 0 0 0 0 0 0 0 0 0 0 0 0 0 0 0 0 0 2 125 282 272 70 147 147 99 167
0 0 0 0 0 0 0 0 0 0 0 0 16 177 0 0 0 0 3 0 0 0 0 0 0 0 0 42 0 0 0 0 0 0 0 0 0 0 85 42 81 265 441 344 128 172 288
0 0 0 0 0 0 0 0 0 0 0 0 0 110 36 136 28 65 150 303 114 14 69 34 6 1 100 275 217 184 0 150 73 31 0 0 0 0 0 9 4 0 19 247 365 151 232
0 0 0 0 0 0 0 0 0 0 0 0 0 11 49 96 155 395 340 350 255 273 335 325 144 53 11 466 414 508 342 330 369 86 80 0 0 25 0 38 55 62 41 90 300 335 395
0 0 0 0 0 0 0 0 0 0 0 0 0 0 53 188 277 481 605 409 279 253 395 239 203 299 261 330 487 567 472 462 482 274 228 33 157 450 101 253 198 191 83 161 285 372 252
0 0 0 0 0 0 0 0 0 0 0 0 0 0 0 20 178 222 244 241 171 218 330 321 333 458 411 205 374 504 455 479 453 360 379 408 553 596 471 727 352 253 447 391 360 282 312
0 0 0 0 0 0 0 0 0 0 0 0 0 0 0 0 11 162 163 236 223 485 417 369 364 332 214 285 709 692 616 617 530 386 424 738 834 729 724 598 379 386 368 357 426 272 229
0 0 0 0 0 0 0 0 0 0 0 0 0 0 0 0 0 13 122 233 253 476 736 420 286 249 251 612 579 614 362 304 526 571 313 411 753 769 541 503 484 533 423 364 339 323 211
2 0 0 0 0 0 0 0 0 0 0 0 0 0 0 0 0 0 18 159 224 178 482 451 302 562 296 669 373 290 185 602 202 185 625 572 642 368 571 517 353 241 154 238 309 575 445
9 0 0 0 0 0 0 0 0 0 0 0 0 0 0 0 0 0 0 49 177 146 364 234 543 657 726 813 664 659 556 548 530 679 698 597 443 362 413 409 348 225 162 328 840 584 709
9 5 7 0 0 0 0 0 0 0 0 0 0 0 0 1 0 0 0 0 8 132 266 233 389 670 572 862 778 757 728 535 823 464 397 443 575 787 576 793 779 592 801 570 452 833 870
CIN
0 0 0 0 0 0 0 0 0 0 0 0 0 0 0 0 0 0 0 0 0 0 0 0 0 0 0 0 0 0 -672 0 0 0 -9 -5 -5 -13 -4 -20 0 0 -21 -22 -25 -16 -12
0 0 0 0 0 0 0 0 0 0 0 0 0 0 0 0 0 0 0 0 0 0 0 0 0 0 0 0 0 0 0 0 0 0 -8 -8 -5 -2 0 -30 -10 -12 -16 -18 -21 -15 -10
0 0 0 0 0 0 0 0 0 0 0 0 0 0 0 0 0 0 0 0 0 0 0 0 0 0 0 0 0 0 -217 0 0 0 -88 0 -4 -4 -7 -8 -24 -8 -12 -17 -23 -22 -21
0 0 0 0 0 0 0 0 0 0 0 0 0 0 0 0 0 0 0 0 0 0 0 0 0 0 0 0 0 -214 -203 -24 0 0 0 0 0 -2 -15 -31 -37 -1 0 0 -26 -24 -41
0 0 0 0 0 0 0 0 0 0 0 0 0 0 0 0 0 0 0 0 0 0 0 0 0 0 0 0 0 -198 -182 -143 -174 -81 0 0 0 0 0 0 0 -2 -1 -4 -8 -27 -29
0 0 0 0 0 0 0 0 0 0 0 0 0 0 0 0 0 0 0 0 0 0 0 0 0 0 0 0 0 -177 -188 -163 -122 -66 -1 -3 -59 -11 0 0 -3 -2 -31 -16 -5 -21 -28
0 0 0 0 0 0 0 0 0 0 0 0 0 0 0 0 0 0 0 0 0 0 0 0 0 0 0 0 0 -149 -150 -83 -123 -90 -65 -69 -31 -10 -1 0 0 0 0 0 -14 -55 -31
-7 -7 0 0 0 0 0 0 0 0 0 0 0 0 0 0 0 0 0 0 0 0 0 0 0 0 0 0 0 0 -61 -101 -100 -43 -27 -28 -26 -47 -3 0 0 0 0 -9 -37 -73 -41
-4 -10 0 0 0 0 0 0 0 0 0 0 0 0 0 0 0 0 0 0 0 0 0 0 0 0 0 0 0 0 0 -212 -135 -31 -19 -61 -40 -15 -14 0 -1 0 0 -12 -4 -57 -47
0 0 0 0 0 0 0 0 0 0 0 0 0 0 0 0 0 0 0 0 0 0 0 0 0 0 0 0 0 0 0 0 0 -69 -20 -31 -40 0 -46 0 -5 0 0 0 -22 -6 0
0 0 0 0 0 0 0 0 0 0 0 0 0 0 0 0 0 0 0 0 0 0 0 0 0 0 0 0 0 0 0 0 0 0 0 -85 -98 0 0 0 -4 0 0 -15 -17 -1 0
0 0 0 0 0 0 0 0 0 0 0 0 0 0 0 0 0 0 0 0 0 0 0 0 0 0 0 0 0 0 0 0 0 0 0 0 0 0 0 0 -5 -8 -30 -22 -10 0 0
0 0 0 0 0 0 0 0 0 0 0 0 0 0 0 0 0 0 0 0 0 0 0 0 0 0 0 0 0 0 0 0 0 0 0 0 0 0 0 -3 -9 0 -6 0 0 0 0
0 0 0 0 0 0 0 0 0 0 0 0 0 0 0 0 0 0 0 0 0 0 0 0 0 0 0 0 0 0 0 0 0 0 0 0 0 0 0 0 -1 -5 0 0 0 0 0
0 0 0 0 0 0 0 0 0 0 0 0 0 0 0 0 0 0 0 0 0 0 0 0 0 0 0 0 0 0 0 0 0 0 0 0 0 0 0 0 0 0 0 0 0 0 0
0 0 0 0 0 0 0 0 0 0 0 0 0 0 0 0 0 0 0 0 0 0 0 0 0 0 0 0 0 0 0 0 0 0 0 0 0 0 0 -4 -1 0 0 0 0 0 0
0 0 0 0 0 0 0 0 0 0 0 0 0 0 0 0 0 0 0 0 0 0 0 0 0 0 0 0 0 0 0 0 0 0 0 0 0 0 0 0 0 0 0 0 0 0 0
0 0 0 0 0 0 0 0 0 0 0 0 0 0 0 0 0 0 0 0 0 0 0 0 0 0 0 0 0 0 0 0 0 0 0 0 0 0 0 -23 -43 -28 -24 0 0 0 0
0 0 0 0 0 0 0 0 0 0 0 0 0 0 0 0 0 0 0 0 0 0 0 0 0 0 0 0 0 0 0 0 0 0 0 0 0 0 -1 -8 -35 -9 -6 -2 0 0 -1
0 0 0 0 0 0 0 0 0 0 0 0 -11 -21 0 0 0 0 -77 0 0 0 0 0 0 0 0 -55 0 0 0 0 0 0 0 0 0 0 0 -1 -1 -2 -6 -11 0 0 -1
0 0 0 0 0 0 0 0 0 0 0 0 0 -65 -14 -7 -65 -99 -83 -44 -61 -89 -108 -80 -68 -57 -35 -12 -17 -13 0 -57 -120 -137 0 0 0 0 0 -29 -9 0 -2 -8 -5 0 0
0 0 0 0 0 0 0 0 0 0 0 0 0 -30 -63 -85 -98 -23 -30 -16 -48 -63 -103 -32 -63 -69 -48 -14 -3 -4 -7 -18 -28 -132 -75 0 -1 -23 0 -26 -25 -7 -6 -5 -9 -4 -9
0 0 0 0 0 0 0 0 0 0 0 0 0 0 -62 -44 -29 -11 -1 -26 -65 -112 -95 -136 -148 -115 -36 -50 -91 -12 -15 -15 -26 -51 -53 -31 -9 -27 0 -16 -17 -7 -5 -7 -4 -6 -5
0 0 0 0 0 0 0 0 0 0 0 0 0 0 0 -28 -31 -40 -52 -51 -66 -127 -157 -145 -160 -115 -213 -121 -112 -42 -23 -36 -52 -60 -27 -26 -30 -16 -1 -25 -6 -2 -40 -10 -6 -2 -6
0 0 0 0 0 0 0 0 0 0 0 0 0 0 0 0 -35 -39 -48 -37 -55 -90 -136 -172 -199 -292 -128 -189 -19 -12 -12 -16 -40 -76 -52 -30 -9 -3 -2 -1 -2 -4 -42 -31 -17 -5 -4
0 0 0 0 0 0 0 0 0 0 0 0 0 0 0 0 0 -39 -56 -25 -36 -83 -47 -125 -166 -88 -37 -39 -7 -3 -1 0 -4 -28 -69 -57 -43 -6 -1 0 0 -5 -22 -71 -34 -5 -26
-1 0 0 0 0 0 0 0 0 0 0 0 0 0 0 0 0 0 -86 -31 -27 -32 -93 -121 -37 -116 -40 -11 0 -2 -4 -26 -4 0 -5 -9 -15 -1 -1 0 0 -22 -58 -78 -11 -10 -52
-1 0 0 0 0 0 0 0 0 0 0 0 0 0 0 0 0 0 0 -51 -14 -22 -126 -95 -83 -98 -30 -6 -2 -1 0 -6 -3 -10 -4 -1 0 0 -1 -1 0 -35 -54 -10 -44 -87 -61
-1 -1 -2 0 0 0 0 0 0 0 0 0 0 0 0 0 0 0 0 0 -36 -53 -42 -37 -31 -164 -124 -24 -33 -20 -3 -14 -8 0 -65 -4 -4 -2 -5 -1 -84 -73 -68 -95 -71 -42 -56
Wind_Speed
nan nan nan nan nan nan nan nan nan nan nan nan nan nan nan nan nan nan nan nan nan nan nan nan nan nan nan nan nan nan 7 nan nan nan nan nan nan nan nan nan nan nan 10 12 13 14 13
nan nan nan nan nan nan nan nan nan nan nan nan nan nan nan nan nan nan nan nan nan nan nan nan nan nan nan nan nan nan nan nan nan nan nan nan nan nan nan nan nan 7 6 6 10 11 16
nan nan nan nan nan nan nan nan nan nan nan nan nan nan nan nan nan nan nan nan nan nan nan nan nan nan nan nan nan nan nan nan nan nan nan nan nan nan nan nan 8 6 4 4 7 11 15
nan nan nan nan nan nan nan nan nan nan nan nan nan nan nan nan nan nan nan nan nan nan nan nan nan nan nan nan nan nan nan nan nan nan nan nan nan nan nan nan nan 3 6 8 6 12 11
nan nan nan nan nan nan nan nan nan nan nan nan nan nan nan nan nan nan nan nan nan nan nan nan nan nan nan nan nan nan nan nan nan nan nan nan nan nan nan nan nan nan 6 nan 7 9 6
nan nan nan nan nan nan nan nan nan nan nan nan nan nan nan nan nan nan nan nan nan nan nan nan nan nan nan nan nan nan nan nan nan nan nan nan nan nan nan nan 5 nan nan nan nan 10 9
nan nan nan nan nan nan nan nan nan nan nan nan nan nan nan nan nan nan nan nan nan nan nan nan nan nan nan nan nan nan nan 6 nan nan nan nan nan 4 nan nan nan nan nan nan 2 4 6
nan nan nan nan nan nan nan nan nan nan nan nan nan nan nan nan nan nan nan nan nan nan nan nan nan nan nan nan nan nan nan 4 4 3 10 nan nan nan nan nan nan nan nan nan 5 5 8
nan nan nan nan nan nan nan nan nan nan nan nan nan nan nan nan nan nan nan nan nan nan nan nan nan nan nan nan nan nan nan nan nan 5 6 nan nan nan nan nan nan nan nan nan 5 13 7
nan nan nan nan nan nan nan nan nan nan nan nan nan nan nan nan nan nan nan nan nan nan nan nan nan nan nan nan nan nan nan nan nan nan nan nan nan nan nan nan nan nan nan nan 12 15 4
nan nan nan nan nan nan nan nan nan nan nan nan nan nan nan nan nan nan nan nan nan nan nan nan nan nan nan nan nan nan nan nan nan nan nan nan nan nan nan nan nan nan nan nan 13 12 8
nan nan nan nan nan nan nan nan nan nan nan nan nan nan nan nan nan nan nan nan nan nan nan nan nan nan nan nan nan nan nan nan nan nan nan nan nan nan nan nan nan nan nan 13 16 8 nan
nan nan nan nan nan nan nan nan nan nan nan nan nan nan nan nan nan nan nan nan nan nan nan nan nan nan nan nan nan nan nan nan nan nan nan nan nan nan nan nan nan nan nan 10 10 13 nan
nan nan nan nan nan nan nan nan nan nan nan nan nan nan nan nan nan nan nan nan nan nan nan nan nan nan nan nan nan nan nan nan nan nan nan nan nan nan nan nan nan nan nan nan nan nan nan
nan nan nan nan nan nan nan nan nan nan nan nan nan nan nan nan nan nan nan nan nan nan nan nan nan nan nan nan nan nan nan nan nan nan nan nan nan nan nan nan nan nan nan nan nan nan nan
nan nan nan nan nan nan nan nan nan nan nan nan nan nan nan nan nan nan nan nan nan nan nan nan nan nan nan nan nan nan nan nan nan nan nan nan nan nan nan nan nan nan nan nan nan nan nan
nan nan nan nan nan nan nan nan nan nan nan nan nan nan nan nan nan nan nan nan nan nan nan nan nan nan nan nan nan nan nan nan nan nan nan nan nan nan nan nan nan nan nan nan nan nan 8
nan nan nan nan nan nan nan nan nan nan nan nan nan nan nan nan nan nan nan nan nan nan nan nan nan nan nan nan nan nan nan nan nan nan nan nan nan nan nan nan nan nan nan nan nan 17 7
nan nan nan nan nan nan nan nan nan nan nan nan nan nan nan nan nan nan nan nan nan nan nan nan nan nan nan nan nan nan nan nan nan nan nan nan nan nan nan 13 13 7 nan 5 11 nan 7
nan nan nan nan nan nan nan nan nan nan nan nan nan 14 nan nan nan nan nan nan nan nan nan nan nan nan nan nan nan nan nan nan nan nan nan nan nan nan nan nan nan 13 10 6 3 4 16
nan nan nan nan nan nan nan nan nan nan nan nan nan 19 nan 17 nan nan 22 30 29 nan nan nan nan nan 14 12 8 8 nan 17 nan nan nan nan nan nan nan nan nan nan nan 15 9 5 8
nan nan nan nan nan nan nan nan nan nan nan nan nan nan nan nan 20 18 22 27 32 36 29 24 28 nan nan 18 10 12 10 11 15 nan nan nan nan nan nan nan nan nan nan nan 9 11 12
nan nan nan nan nan nan nan nan nan nan nan nan nan nan nan 18 18 19 25 30 32 42 29 26 30 28 20 26 23 23 28 24 17 13 8 nan 20 17 12 23 18 15 nan 10 15 15 14
nan nan nan nan nan nan nan nan nan nan nan nan nan nan nan nan 19 22 25 27 30 41 35 33 35 26 29 25 18 20 24 31 24 23 17 13 12 17 21 19 14 24 23 14 11 13 22
nan nan nan nan nan nan nan nan nan nan nan nan nan nan nan nan nan 18 24 26 29 32 36 31 33 33 28 26 20 23 23 22 30 33 30 23 21 28 22 16 16 23 21 19 20 19 23
nan nan nan nan nan nan nan nan nan nan nan nan nan nan nan nan nan nan 25 25 30 35 31 39 33 37 30 29 26 28 16 17 27 28 25 22 17 12 20 13 9 29 32 25 23 16 34
nan nan nan nan nan nan nan nan nan nan nan nan nan nan nan nan nan nan nan 28 28 31 30 33 38 30 24 24 18 23 19 27 24 13 21 21 18 16 18 20 15 39 35 32 24 28 35
nan nan nan nan nan nan nan nan nan nan nan nan nan nan nan nan nan nan nan nan 26 28 34 39 27 28 29 24 21 24 12 24 18 27 22 20 19 19 23 20 13 35 32 23 33 34 34
nan nan nan nan nan nan nan nan nan nan nan nan nan nan nan nan nan nan nan nan nan 24 30 33 37 32 36 27 29 25 26 25 28 15 24 19 23 22 18 23 26 22 26 29 27 29 28
Wind_Direction
nan nan nan nan nan nan nan nan nan nan nan nan nan nan nan nan nan nan nan nan nan nan nan nan nan nan nan nan nan nan 293 nan nan nan nan nan nan nan nan nan nan nan 120 104 64 48 29
nan nan nan nan nan nan nan nan nan nan nan nan nan nan nan nan nan nan nan nan nan nan nan nan nan nan nan nan nan nan nan nan nan nan nan nan nan nan nan nan nan 264 191 123 73 50 34
nan nan nan nan nan nan nan nan nan nan nan nan nan nan nan nan nan nan nan nan nan nan nan nan nan nan nan nan nan nan nan nan nan nan nan nan nan nan nan nan 282 237 163 116 92 58 42
nan nan nan nan nan nan nan nan nan nan nan nan nan nan nan nan nan nan nan nan nan nan nan nan nan nan nan nan nan nan nan nan nan nan nan nan nan nan nan nan nan 146 57 26 56 58 48
nan nan nan nan nan nan nan nan nan nan nan nan nan nan nan nan nan nan nan nan nan nan nan nan nan nan nan nan nan nan nan nan nan nan nan nan nan nan nan nan nan nan 247 nan 13 60 56
nan nan nan nan nan nan nan nan nan nan nan nan nan nan nan nan nan nan nan nan nan nan nan nan nan nan nan nan nan nan nan nan nan nan nan nan nan nan nan nan 288 nan nan nan nan 6 62
nan nan nan nan nan nan nan nan nan nan nan nan nan nan nan nan nan nan nan nan nan nan nan nan nan nan nan nan nan nan nan 301 nan nan nan nan nan 193 nan nan nan nan nan nan 208 299 51
nan nan nan nan nan nan nan nan nan nan nan nan nan nan nan nan nan nan nan nan nan nan nan nan nan nan nan nan nan nan nan 290 288 137 166 nan nan nan nan nan nan nan nan nan 291 359 57
nan nan nan nan nan nan nan nan nan nan nan nan nan nan nan nan nan nan nan nan nan nan nan nan nan nan nan nan nan nan nan nan nan 95 183 nan nan nan nan nan nan nan nan nan 225 332 29
nan nan nan nan nan nan nan nan nan nan nan nan nan nan nan nan nan nan nan nan nan nan nan nan nan nan nan nan nan nan nan nan nan nan nan nan nan nan nan nan nan nan nan nan 300 353 315
nan nan nan nan nan nan nan nan nan nan nan nan nan nan nan nan nan nan nan nan nan nan nan nan nan nan nan nan nan nan nan nan nan nan nan nan nan nan nan nan nan nan nan nan 303 312 345
nan nan nan nan nan nan nan nan nan nan nan nan nan nan nan nan nan nan nan nan nan nan nan nan nan nan nan nan nan nan nan nan nan nan nan nan nan nan nan nan nan nan nan 280 309 313 nan
nan nan nan nan nan nan nan nan nan nan nan nan nan nan nan nan nan nan nan nan nan nan nan nan nan nan nan nan nan nan nan nan nan nan nan nan nan nan nan nan nan nan nan 352 355 345 nan
nan nan nan nan nan nan nan nan nan nan nan nan nan nan nan nan nan nan nan nan nan nan nan nan nan nan nan nan nan nan nan nan nan nan nan nan nan nan nan nan nan nan nan nan nan nan nan
nan nan nan nan nan nan nan nan nan nan nan nan nan nan nan nan nan nan nan nan nan nan nan nan nan nan nan nan nan nan nan nan nan nan nan nan nan nan nan nan nan nan nan nan nan nan nan
nan nan nan nan nan nan nan nan nan nan nan nan nan nan nan nan nan nan nan nan nan nan nan nan nan nan nan nan nan nan nan nan nan nan nan nan nan nan nan nan nan nan nan nan nan nan nan
nan nan nan nan nan nan nan nan nan nan nan nan nan nan nan nan nan nan nan nan nan nan nan nan nan nan nan nan nan nan nan nan nan nan nan nan nan nan nan nan nan nan nan nan nan nan 181
nan nan nan nan nan nan nan nan nan nan nan nan nan nan nan nan nan nan nan nan nan nan nan nan nan nan nan nan nan nan nan nan nan nan nan nan nan nan nan nan nan nan nan nan nan 316 310
nan nan nan nan nan nan nan nan nan nan nan nan nan nan nan nan nan nan nan nan nan nan nan nan nan nan nan nan nan nan nan nan nan nan nan nan nan nan nan 220 226 211 nan 190 191 nan 282
nan nan nan nan nan nan nan nan nan nan nan nan nan 278 nan nan nan nan nan nan nan nan nan nan nan nan nan nan nan nan nan nan nan nan nan nan nan nan nan nan nan 241 252 261 199 177 277
nan nan nan nan nan nan nan nan nan nan nan nan nan 264 nan 230 nan nan 201 204 201 nan nan nan nan nan 198 222 252 227 nan 238 nan nan nan nan nan nan nan nan nan nan nan 274 276 233 259
nan nan nan nan nan nan nan nan nan nan nan nan nan nan nan nan 200 195 220 215 200 205 195 213 198 nan nan 174 192 250 242 235 236 nan nan nan nan nan nan nan nan nan nan nan 305 276 298
nan nan nan nan nan nan nan nan nan nan nan nan nan nan nan 220 201 196 213 210 205 194 194 195 192 191 195 214 198 205 215 216 229 247 254 nan 229 227 237 251 255 246 nan 307 302 296 307
nan nan nan nan nan nan nan nan nan nan nan nan nan nan nan nan 199 200 201 195 190 190 181 187 192 187 214 212 218 226 234 228 229 217 221 239 238 225 220 245 252 249 243 275 298 294 295
nan nan nan nan nan nan nan nan nan nan nan nan nan nan nan nan nan 193 201 196 186 197 193 193 200 190 188 181 206 221 232 231 230 226 232 228 239 237 232 249 241 277 276 283 284 299 304
nan nan nan nan nan nan nan nan nan nan nan nan nan nan nan nan nan nan 195 200 194 196 203 208 208 198 199 178 198 208 221 206 240 235 229 247 247 272 254 210 238 248 261 263 266 288 274
nan nan nan nan nan nan nan nan nan nan nan nan nan nan nan nan nan nan nan 199 195 197 192 202 201 205 209 204 211 228 215 198 258 253 267 272 263 280 274 258 242 259 267 269 280 260 266
nan nan nan nan nan nan nan nan nan nan nan nan nan nan nan nan nan nan nan nan 201 202 196 204 195 213 216 221 222 257 256 264 255 249 260 264 259 263 249 249 254 269 273 270 255 266 266
nan nan nan nan nan nan nan nan nan nan nan nan nan nan nan nan nan nan nan nan nan 185 196 203 204 203 207 209 215 229 243 255 239 267 260 245 230 218 229 241 254 258 246 254 246 262 270